FORMOSAT-3 FM1

Last updated on Tue Mar 15 2022 00:02:21 GMT+0000 (Coordinated Universal Time)

1 29048U 06011B 22073.58833925 .00000280 00000+0 12617-3 0 9997 2 29048 71.9670 163.6623 0043569 3.1625 356.9778 14.28869704834487

Satellite not in orbit

FORMOSAT-3 FM1